This is the latest recevied weather packets stored in our database for station/object KC9DRE. If no packets are shown the sender has not sent any weather packets the latest 10 day(s).
| Time | Temp. | Humidity | Pressure | Rain* | Wind** | Luminosity | Snow |
|---|---|---|---|---|---|---|---|
| 1778253652 | 20.56° C | 41% | 1015.4 hPa | 0 mm | - | 732 W/m² | - |
| 1778253349 | 20° C | 43% | 1015.4 hPa | 0 mm | - | 720 W/m² | - |
| 1778253046 | 20° C | 41% | 1015.3 hPa | 0 mm | - | 708 W/m² | - |
| 1778252743 | 20° C | 40% | 1015.5 hPa | 0 mm | - | 695 W/m² | - |
| 1778252438 | 20° C | 43% | 1015.7 hPa | 0 mm | - | 681 W/m² | - |
| 1778252136 | 19.44° C | 43% | 1015.6 hPa | 0 mm | - | 667 W/m² | - |
| 1778251832 | 19.44° C | 41% | 1015.6 hPa | 0 mm | - | 653 W/m² | - |
| 1778251530 | 19.44° C | 42% | 1015.9 hPa | 0 mm | - | 641 W/m² | - |
| 1778251227 | 18.89° C | 45% | 1015.9 hPa | 0 mm | - | 584 W/m² | - |
| 1778250925 | 19.44° C | 43% | 1015.9 hPa | 0 mm | - | 608 W/m² | - |
| 1778250621 | 19.44° C | 48% | 1015.9 hPa | 0 mm | - | 586 W/m² | - |
| 1778250318 | 18.89° C | 47% | 1016.1 hPa | 0 mm | - | 582 W/m² | - |
| 1778250014 | 18.33° C | 49% | 1016.1 hPa | 0 mm | - | 565 W/m² | - |
| 1778249711 | 18.33° C | 46% | 1015.9 hPa | 0 mm | - | 550 W/m² | - |
| 1778249409 | 17.78° C | 48% | 1016.2 hPa | 0 mm | - | 533 W/m² | - |
| 1778249106 | 17.78° C | 48% | 1016.2 hPa | 0 mm | - | 517 W/m² | - |
| 1778248801 | 17.78° C | 51% | 1016.2 hPa | 0 mm | - | 501 W/m² | - |
| 1778248498 | 17.22° C | 49% | 1016.2 hPa | 0 mm | - | 484 W/m² | - |
| 1778248194 | 16.67° C | 51% | 1015.9 hPa | 0 mm | - | 468 W/m² | - |
| 1778247891 | 16.11° C | 51% | 1016.2 hPa | 0 mm | - | 452 W/m² | - |
| 1778247587 | 15.56° C | 52% | 1016.1 hPa | 0 mm | - | 439 W/m² | - |
| 1778247285 | 15.56° C | 52% | 1015.9 hPa | 0 mm | - | 421 W/m² | - |
| 1778246982 | 15.56° C | 52% | 1016.2 hPa | 0 mm | - | 404 W/m² | - |
| 1778246680 | 15.56° C | 51% | 1016.1 hPa | 0 mm | - | 388 W/m² | - |
| 1778246376 | 15° C | 53% | 1015.9 hPa | 0 mm | - | 371 W/m² | - |
* Rain latest hour (hover to see other rain measurements)
** Current wind speed in m/s (hover to see current wind gust speed)